Hourly Data Report for October 07, 2014

All times are specified in Local Standard Time (LST). Add 1 hour to adjust for Daylight Saving Time where and when it is observed.

PANGNIRTUNG
NUNAVUT

66°08'36.300" N
65°42'40.500" W
22.60 m
2403049
71826
WXP

Download Data

Hourly Data (October 2014)
Hourly Data Report for October 7, 2014
Temp Definition
°C
Dew Point Temp Definition
°C
Rel Hum Definition
%
Wind Dir Definition
10's deg

Wind Spd Definition
km/h
Visibility Definition
km
Stn Press Definition
kPa
Hmdx Definition


Wind Chill Definition


Weather Definition


TIME
00:00 1.3 -1.1 84 24 3   101.84     LegendNANA
01:00 0.7 -0.5 92   0   101.91     LegendNANA
02:00 0.1 -0.1 99 24 6   101.92     LegendNANA
03:00 0.0 0.0 100 23 5   101.92   -2 LegendNANA
04:00 0.1 -0.2 98 24 9   101.90     LegendNANA
05:00 0.4 -0.6 94 25 1   101.87     LegendNANA
06:00 0.2 -0.4 96 24 9   101.85     LegendNANA
07:00 0.5 -0.8 91 23 8   101.85     LegendNANA
08:00 0.8 -1.1 87 22 5   101.85     LegendNANA
09:00 0.9 -1.1 87 23 8   101.85     LegendNANA
10:00 0.9 -1.3 85 23 12   101.83     LegendNANA
11:00 0.9 -1.3 85 22 11   101.85     LegendNANA
12:00 1.1 -1.1 85 23 12   101.87     LegendNANA
13:00 0.9 -0.1 93 24 14   101.87     LegendNANA
14:00 1.0 -0.1 93 24 11   101.89     LegendNANA
15:00 0.6 -0.6 92 25 6   101.89     LegendNANA
16:00 0.3 -0.8 93 24 5   101.87     LegendNANA
17:00 0.6 -3.3 75 10 6   101.86     LegendNANA
18:00 0.6 -4.8 67 8 14   101.86     LegendNANA
19:00 0.6 -4.9 66 7 6   101.87     LegendNANA
20:00 0.7 -5.6 63 10 7   101.82     LegendNANA
21:00 0.2 -5.5 66 13 10   101.83     LegendNANA
22:00 -0.1 -4.6 72 10 9   101.83   -3 LegendNANA
23:00 -0.1 -5.9 65 10 6   101.83   -2 LegendNANA

Notes on Data Quality.

Legend

  • E = Estimated
  • M = Missing
  • NA = Not Available
  • ‡ = Partner data that is not subject to review by the National Climate Archives
Date modified: